CAPE
0 0 0 0 0 0 0 0 0 0 0 0 0 0 0 0 0 0 0 0 0 0 0 0 0 0 0 0 0 24 34 171 174 192 136 106 184 317 307 348 440 531 427 273
0 0 0 0 0 0 0 0 0 0 0 0 0 0 0 0 0 0 0 0 0 0 0 0 0 0 0 0 13 72 138 240 168 145 135 243 337 230 269 386 506 526 390 266
0 0 0 0 0 0 0 0 0 0 0 0 0 0 0 0 0 0 0 0 0 0 0 0 0 0 0 0 40 74 172 195 176 177 383 425 381 329 314 369 388 440 208 245
0 0 0 0 0 0 0 0 0 0 0 0 0 0 0 0 0 0 0 0 0 0 0 2 0 0 0 12 29 106 139 205 272 388 234 335 181 183 365 248 290 311 298 281
0 0 0 0 0 0 0 0 0 0 0 0 0 0 0 0 0 0 0 0 0 0 0 0 0 0 0 7 24 85 146 165 323 385 254 340 230 256 213 250 359 492 458 414
0 0 0 0 0 0 0 0 0 0 0 0 0 0 0 0 0 0 0 0 0 0 0 0 0 0 0 1 12 59 140 273 358 401 439 374 306 178 214 352 344 430 431 480
0 0 0 0 0 0 0 0 0 0 0 0 0 0 0 0 0 0 0 0 0 0 0 0 0 0 0 0 12 59 154 247 298 295 264 108 177 219 363 263 317 352 289 430
0 0 0 0 0 0 0 0 0 0 0 0 0 0 0 0 0 0 0 0 0 0 0 0 0 0 0 0 19 41 120 144 183 161 117 37 151 180 139 262 368 332 372 506
10 0 0 0 0 0 0 0 0 0 0 0 0 0 0 0 0 0 0 0 0 1 0 0 0 0 0 10 43 59 36 32 105 139 67 114 234 218 149 327 463 463 528 511
0 0 0 0 0 0 0 0 0 0 0 0 0 0 0 0 0 0 0 0 0 11 0 0 0 0 0 32 64 27 0 63 95 145 69 245 285 253 87 188 291 409 488 470
0 0 9 0 0 0 0 0 0 0 0 0 0 0 0 0 0 0 0 0 27 13 0 0 0 0 8 46 48 0 7 44 103 58 144 297 211 194 91 130 196 426 471 405
1 17 1 0 0 0 0 0 0 0 0 0 0 0 0 0 0 0 0 5 56 15 0 0 0 0 7 61 9 0 0 4 40 12 117 302 146 72 105 124 294 350 346 431
1 0 0 8 0 0 0 0 0 0 0 0 0 0 0 0 0 0 50 14 16 14 0 0 0 0 11 54 0 0 0 0 6 2 57 251 190 106 158 161 265 249 268 348
5 0 0 20 0 0 0 0 0 0 0 0 0 0 0 0 0 0 17 3 3 14 0 0 0 0 8 30 0 0 0 0 0 2 17 172 171 182 171 150 218 286 150 192
17 0 0 0 0 0 0 0 0 0 0 0 0 0 0 0 0 0 0 5 18 55 25 0 6 0 4 6 0 0 0 0 0 0 3 196 94 118 57 109 204 175 150 97
12 12 0 0 0 0 0 0 0 0 0 0 0 0 0 0 0 0 0 2 26 86 46 19 8 0 9 0 0 0 0 0 0 0 2 99 44 72 69 93 134 176 122 147
11 17 2 0 0 0 0 0 0 0 0 0 0 0 0 0 0 0 0 0 7 109 91 46 10 7 28 0 0 0 0 0 0 0 1 10 33 21 91 42 51 177 209 109
2 11 2 11 1 1 30 0 0 0 0 0 0 0 0 0 0 0 0 0 12 66 135 127 42 41 47 0 0 0 0 0 0 0 0 2 17 21 61 4 2 157 173 144
6 10 2 3 27 1 27 0 0 0 0 0 0 0 0 0 0 0 0 0 0 44 197 248 120 96 71 0 0 0 0 0 0 0 0 0 5 105 37 3 0 65 109 95
19 0 2 2 19 9 14 0 0 0 0 0 0 0 0 0 0 0 0 0 0 2 217 305 185 136 113 2 0 0 0 0 0 0 0 0 3 156 107 2 0 6 46 86
24 15 2 1 9 20 0 0 0 0 0 0 0 0 0 0 0 0 0 0 0 36 211 320 239 173 169 18 0 0 0 0 0 0 0 0 1 144 294 41 0 2 1 59
6 2 2 0 0 10 1 0 2 0 0 0 0 0 0 0 0 0 0 0 0 3 92 273 264 231 197 42 0 0 0 0 0 0 0 0 0 36 238 152 0 0 0 4
0 5 14 18 2 0 0 3 1 1 0 0 0 0 0 0 0 0 0 0 30 0 79 202 234 251 218 60 0 0 0 0 0 0 0 0 0 0 173 235 4 0 0 0
17 2 16 14 2 0 0 2 0 1 0 0 0 0 0 0 0 0 0 0 105 1 63 153 179 221 228 93 3 0 0 0 0 0 0 0 0 0 39 189 33 0 0 0
1 0 1 10 12 0 3 4 0 0 0 0 0 0 0 0 0 0 0 0 30 2 54 122 158 235 232 110 19 0 0 0 0 0 0 0 0 0 0 47 85 17 6 0
16 2 1 0 15 12 7 0 0 0 0 0 0 0 0 0 0 0 1 37 48 0 13 103 164 236 235 96 35 8 0 0 0 0 0 0 0 0 0 0 0 0 0 0
CIN
0 0 0 0 0 0 0 0 0 0 0 0 0 0 0 0 0 0 0 0 0 0 0 0 0 0 0 0 0 -680 -660 -580 -502 -416 -363 -297 -229 -150 -113 -66 -25 -5 0 -1
0 0 0 0 0 0 0 0 0 0 0 0 0 0 0 0 0 0 0 0 0 0 0 0 0 0 0 0 -689 -666 -581 -495 -446 -375 -327 -220 -158 -131 -86 -15 -7 -1 0 -1
0 0 0 0 0 0 0 0 0 0 0 0 0 0 0 0 0 0 0 0 0 0 0 0 0 0 0 0 -681 -623 -522 -458 -388 -336 -234 -182 -133 -109 -46 -12 -6 -1 -1 -1
0 0 0 0 0 0 0 0 0 0 0 0 0 0 0 0 0 0 0 0 0 0 0 -215 0 0 0 -667 -652 -548 -465 -372 -324 -240 -219 -140 -100 -41 -2 -8 -2 -1 -1 -1
0 0 0 0 0 0 0 0 0 0 0 0 0 0 0 0 0 0 0 0 0 0 0 0 0 0 0 -640 -573 -471 -385 -332 -243 -181 -150 -83 -65 -11 -4 -7 -1 -1 0 0
0 0 0 0 0 0 0 0 0 0 0 0 0 0 0 0 0 0 0 0 0 0 0 0 0 0 0 -199 -462 -412 -334 -240 -179 -124 -70 -44 -15 -7 -1 -1 -2 -1 -1 -1
0 0 0 0 0 0 0 0 0 0 0 0 0 0 0 0 0 0 0 0 0 0 0 0 0 0 0 0 -468 -385 -278 -210 -162 -120 -68 -82 -12 -8 0 0 -1 0 -1 -1
-1 0 0 0 0 0 0 0 0 0 0 0 0 0 0 0 0 0 0 0 0 0 0 0 0 0 0 0 -430 -370 -270 -224 -175 -123 -95 -96 -9 -1 -4 -1 0 -1 -1 0
-11 0 0 0 0 0 0 0 0 0 0 0 -1 0 0 0 0 0 0 0 0 -27 0 0 0 0 0 -440 -367 -306 -312 -296 -183 -106 -99 -22 0 -1 -4 -1 0 0 0 -1
-1 -2 -2 0 0 0 0 0 0 0 0 0 0 0 0 0 0 0 0 0 0 -245 0 0 0 0 -35 -403 -328 -352 0 -248 -171 -92 -61 -2 -1 -1 -14 -1 0 0 0 -1
-1 -2 -6 0 0 0 0 0 0 0 0 0 0 0 0 0 0 0 0 0 -124 -276 0 0 0 0 -414 -364 -327 -1 -363 -238 -142 -109 -18 -1 0 -3 -20 -3 0 0 0 -1
-1 -2 -6 -1 0 0 0 0 0 0 0 0 0 0 0 0 0 0 0 -28 -194 -264 0 0 0 0 -407 -322 -393 0 0 -167 -171 -133 -18 -1 -2 -12 -13 -2 0 -1 0 0
-1 0 -5 -5 -1 0 0 0 0 0 0 0 0 0 0 0 0 0 -97 -164 -244 -274 0 0 0 0 -357 -298 0 0 0 0 -175 -1 -36 -1 -1 -4 -1 -5 -1 -1 0 -1
0 0 0 -4 0 0 0 0 0 0 0 0 0 0 0 0 0 0 -108 -216 -148 -268 0 0 0 0 -341 -316 0 0 0 0 0 -2 -13 -2 -6 -3 -2 -3 -1 0 -17 -28
-1 -1 0 0 0 0 0 0 0 0 0 0 0 0 0 0 0 0 0 -184 -220 -198 -264 0 -337 0 -345 -356 0 0 0 0 0 0 -2 -4 -10 -6 -7 -29 -2 -2 -11 -3
-1 0 0 0 0 0 0 0 0 0 0 0 0 0 0 0 0 0 0 -53 -154 -153 -203 -259 -312 0 -309 0 0 0 0 0 0 0 -1 -31 -22 -4 -13 -24 -25 -9 -26 -33
0 -1 -4 0 0 -4 0 0 0 0 0 0 0 0 0 0 0 0 0 0 -91 -130 -159 -201 -259 -250 -276 0 0 0 0 0 0 0 -2 -76 -40 -3 -6 -14 0 -8 -15 -14
0 0 -4 -6 -8 -2 -4 0 0 0 0 0 0 0 0 0 0 0 0 0 -137 -107 -121 -166 -199 -232 -259 0 0 0 0 0 0 0 0 -1 -93 -39 -17 -2 -1 -2 -22 -15
-1 0 -2 -7 -5 -2 -4 0 0 0 0 0 0 0 0 0 0 0 0 0 0 -93 -100 -115 -150 -194 -257 0 0 0 0 0 0 0 0 0 -2 -45 -33 -1 0 -8 -11 -2
-2 -1 0 -8 -5 -6 -22 0 0 0 0 0 0 0 0 0 0 0 0 0 -8 -10 -77 -115 -155 -213 -239 -162 0 0 0 0 0 0 0 0 -22 -69 -65 -2 0 -1 -1 -4
-1 0 0 -1 -9 -13 0 0 0 0 0 0 0 0 0 0 0 0 0 0 0 -183 -101 -107 -188 -203 -235 -221 0 0 0 0 0 0 0 0 -2 -121 -40 -104 0 -1 -1 -46
-1 -1 -1 -1 -2 -2 -1 0 -4 0 0 0 0 0 0 0 0 0 0 0 0 -90 -145 -137 -173 -211 -236 -310 0 0 0 0 0 0 0 0 0 -229 -98 -98 -10 -1 -1 -1
0 0 0 -1 -1 0 0 -1 -1 -1 0 0 0 0 0 0 0 0 0 0 -361 0 -168 -156 -176 -205 -259 -304 0 0 0 0 0 0 0 0 0 0 -160 -116 -248 0 0 0
-1 0 0 0 0 0 0 -1 0 -1 0 0 0 0 0 0 0 0 0 0 -300 -48 -219 -180 -184 -207 -265 -300 -82 0 0 0 0 0 0 0 0 0 -258 -172 -260 0 0 0
0 0 0 0 -1 -1 0 0 0 0 0 0 0 0 0 0 0 0 0 0 -368 -41 -232 -206 -191 -192 -230 -290 -268 -1 0 0 0 0 0 0 0 0 0 -303 -259 -312 -240 0
-1 -2 0 0 -1 0 0 0 0 0 0 0 0 0 0 0 0 0 -23 -450 -390 0 -239 -222 -176 -181 -195 -263 -269 -262 0 0 0 0 0 0 0 0 0 0 0 0 0 0
Wind_Speed
30 35 40 40 36 35 41 41 42 37 31 39 46 46 45 41 43 46 47 43 46 36 31 27 21 17 10 5 2 3 2 2 2 1 3 5 8 11 13 14 12 11 11 11
35 45 49 30 34 34 39 41 40 40 37 42 45 53 53 46 48 48 43 43 41 35 31 18 15 11 7 6 4 2 1 2 1 2 3 8 10 13 15 15 14 12 11 13
47 45 31 34 34 36 34 36 35 37 43 43 47 56 57 50 46 41 30 40 38 34 31 17 10 8 7 6 4 4 5 5 3 4 6 9 12 14 14 13 12 10 12 12
48 45 36 39 39 34 35 29 37 43 40 43 40 61 51 44 43 38 44 41 33 25 16 11 9 8 7 6 7 7 7 6 5 5 7 9 13 15 15 12 13 12 11 10
47 45 46 41 42 33 36 31 36 35 34 41 40 42 53 41 46 43 37 38 23 18 12 11 8 7 6 8 8 8 8 7 7 7 9 10 13 12 11 12 13 11 11 9
47 32 39 47 34 33 31 29 30 30 30 31 26 28 42 47 46 43 39 32 13 9 9 8 7 7 9 9 9 9 8 8 8 8 10 12 12 11 11 11 10 11 9 9
45 51 36 36 38 30 29 24 25 27 24 25 25 30 43 33 19 27 24 20 8 6 6 5 7 9 9 10 9 9 8 8 9 9 11 12 11 10 10 10 11 12 11 11
49 52 49 36 42 32 31 26 27 27 26 27 18 31 17 28 37 37 38 23 7 5 4 4 7 10 11 10 10 10 9 9 10 11 12 11 11 11 11 11 13 13 13 14
47 54 35 40 37 37 32 34 24 32 24 28 11 28 36 38 36 29 20 7 11 6 2 5 9 12 11 10 11 11 10 10 11 12 12 12 12 11 12 12 13 15 15 15
31 43 40 42 37 38 33 27 30 32 20 18 34 33 29 17 21 23 31 8 7 1 3 7 12 12 10 11 12 11 11 12 12 13 13 13 13 12 13 14 14 15 16 18
34 35 40 35 46 40 36 34 34 28 25 41 36 29 23 30 22 21 6 4 6 7 8 12 13 11 10 12 13 11 12 13 13 14 14 15 15 14 15 16 16 16 17 19
31 34 39 47 39 43 38 38 33 32 18 36 32 24 18 22 16 15 2 0 3 8 12 15 14 11 11 13 14 12 13 13 14 15 15 16 16 16 17 17 17 17 18 20
32 39 38 39 44 41 45 41 36 33 30 42 35 23 21 13 9 8 6 1 6 12 13 15 12 11 12 14 14 14 14 14 15 17 16 16 17 18 17 17 18 18 19 20
28 42 43 36 41 35 46 47 40 45 39 29 32 28 21 12 5 7 7 2 6 13 14 14 11 12 14 15 15 15 15 16 16 17 17 17 17 18 18 18 18 18 16 9
25 43 49 41 33 33 38 48 49 47 47 44 28 33 32 19 7 9 11 4 4 10 12 13 12 13 15 16 16 16 16 17 18 19 18 19 19 19 20 20 19 18 18 18
23 31 47 48 39 34 35 38 47 49 44 42 37 33 33 35 30 24 17 19 8 7 12 12 12 15 16 17 17 18 18 19 20 20 20 21 20 19 19 20 19 21 20 20
22 27 38 56 41 33 40 39 40 42 41 38 42 36 30 30 26 24 21 23 29 10 13 13 16 17 17 18 19 19 19 20 21 22 21 22 21 20 20 19 19 21 22 21
26 26 31 41 43 46 24 19 33 33 37 41 42 32 30 28 26 25 25 18 25 33 12 13 17 18 18 18 19 20 20 21 22 23 22 22 22 21 21 20 20 21 22 21
30 29 29 37 49 35 26 22 25 29 25 24 27 29 33 32 32 32 27 25 25 32 26 10 19 19 18 19 20 21 21 22 23 23 23 23 23 23 22 21 21 20 21 21
28 29 29 33 40 49 24 24 25 27 31 22 24 26 27 28 35 26 17 16 21 25 24 13 17 20 19 19 21 21 22 23 23 23 23 24 24 23 22 22 21 22 21 22
28 29 34 34 36 28 23 23 22 36 29 23 23 25 27 31 33 31 27 25 23 23 28 20 19 22 22 19 20 21 22 23 23 24 24 24 24 24 23 22 22 23 22 23
26 28 29 32 37 36 21 21 29 24 22 22 23 24 28 31 32 32 31 30 29 26 29 19 27 22 22 20 20 21 22 23 23 23 24 23 24 24 24 24 24 24 24 25
21 21 25 25 27 22 19 17 18 20 21 22 23 24 27 30 31 30 30 30 29 29 29 30 36 28 21 22 21 21 22 24 24 23 23 24 24 25 25 25 25 25 25 25
15 16 21 25 21 24 25 20 20 21 23 22 22 24 26 29 29 30 30 29 29 29 28 25 28 32 24 22 23 21 20 23 24 23 23 25 25 25 26 26 26 25 25 25
17 18 22 24 21 23 25 27 26 26 26 25 24 23 25 27 29 29 30 30 29 29 25 27 30 31 28 22 23 21 19 20 20 22 23 23 25 25 25 26 25 26 26 25
14 16 19 23 23 24 28 31 30 29 28 27 27 26 24 25 27 29 30 30 30 30 25 26 25 22 22 23 23 21 20 21 19 21 22 23 23 24 25 26 24 22 21 26
Wind_Direction
241 242 242 228 232 256 265 266 271 274 277 277 278 279 280 286 289 293 299 306 281 263 252 262 316 322 330 350 3 303 261 209 201 274 308 324 331 340 343 345 347 348 349 350
243 241 222 236 251 254 260 264 266 276 276 277 277 274 272 282 286 291 297 294 280 272 275 319 327 335 353 358 358 51 100 160 156 347 353 346 347 347 346 348 350 352 355 353
236 232 244 242 247 251 251 255 265 270 277 276 277 276 272 280 285 290 296 271 257 270 279 316 334 349 354 357 26 77 101 110 78 14 6 357 355 349 351 355 359 5 3 4
246 247 248 245 245 235 248 254 269 273 275 273 276 276 276 281 282 285 276 267 269 287 311 327 336 355 3 23 70 81 91 90 63 38 12 5 355 353 1 7 5 7 9 17
243 246 241 244 224 243 228 264 268 274 275 278 274 279 265 281 277 270 274 260 277 292 316 324 339 6 47 71 71 73 82 74 61 40 23 15 3 14 22 15 7 9 14 41
247 253 245 241 250 245 257 263 267 270 275 266 268 270 237 262 266 260 259 258 271 300 326 344 11 61 75 78 74 72 77 64 54 45 28 18 25 29 31 30 23 26 50 69
245 244 251 247 237 238 231 234 257 265 259 247 280 276 236 265 274 268 271 265 277 309 340 10 70 91 87 90 83 77 74 60 57 50 40 42 47 55 57 48 47 46 62 98
240 240 236 238 232 228 217 220 246 260 270 283 268 268 263 261 256 240 242 265 285 301 341 50 90 98 96 91 84 77 74 66 68 66 58 64 58 54 63 68 66 76 91 113
239 239 234 238 233 219 227 224 230 263 276 284 238 257 257 249 256 260 271 230 260 278 349 84 105 107 100 91 91 83 78 72 78 71 75 65 61 73 60 73 89 79 85 89
240 237 234 222 227 228 230 227 235 248 244 262 245 247 248 265 272 261 223 245 164 221 109 109 116 111 95 94 92 86 82 81 87 80 78 75 81 92 82 95 112 99 95 130
242 238 231 220 222 220 223 228 236 245 258 219 234 255 263 245 271 253 268 135 143 133 124 124 119 110 95 100 98 87 90 89 88 89 80 79 91 90 102 101 117 107 122 126
236 234 235 222 225 228 226 233 226 240 217 232 239 254 265 264 285 259 245 7 122 126 124 123 120 107 105 107 104 97 96 95 100 100 87 81 89 92 104 100 107 121 126 132
232 228 226 222 220 225 224 229 227 237 238 231 237 254 256 276 294 274 287 217 122 122 120 122 115 112 114 112 112 106 105 101 105 113 100 86 84 87 88 99 101 115 107 115
238 224 223 217 218 225 224 225 226 227 230 235 239 239 242 256 293 295 290 253 133 124 123 121 113 118 120 117 117 114 112 110 111 117 116 98 81 110 105 108 90 84 56 308
241 223 222 228 230 232 231 224 225 227 228 230 245 238 231 249 284 286 281 264 154 128 126 124 119 123 125 121 122 121 119 117 123 127 121 125 131 121 110 112 112 89 82 89
243 226 222 223 227 232 231 230 226 227 231 235 241 244 244 245 257 261 266 250 236 147 133 127 124 129 131 127 127 127 124 125 131 131 128 135 133 128 116 119 118 99 91 99
243 232 220 217 223 232 231 230 231 232 236 237 234 243 254 248 252 251 255 252 233 159 142 133 134 135 135 132 132 131 126 130 134 141 131 139 140 138 128 122 125 104 91 98
243 236 225 220 219 220 233 241 233 233 235 234 234 245 241 243 246 246 249 261 233 217 146 135 134 136 137 132 134 132 130 133 135 140 137 136 139 134 132 121 123 115 108 99
237 235 226 218 216 224 236 244 234 228 234 247 244 246 244 245 250 239 242 243 237 224 234 137 141 138 136 135 136 135 134 135 139 139 142 142 140 134 130 124 117 122 115 108
233 234 233 221 216 217 235 249 247 239 231 252 249 248 247 246 229 231 255 262 245 237 233 142 138 141 138 138 137 138 138 140 143 142 141 145 143 139 134 129 121 122 124 120
226 230 225 224 220 231 249 251 243 224 232 256 253 252 245 235 232 249 252 248 248 247 226 223 142 146 144 139 139 142 142 144 144 142 140 140 144 143 137 131 128 127 126 125
227 226 227 226 224 226 259 244 231 239 253 258 256 256 246 241 244 245 246 244 245 245 228 163 156 146 143 142 142 145 146 145 143 141 142 138 141 147 142 142 142 133 128 129
241 243 232 234 234 247 252 244 254 258 261 260 261 261 250 246 246 247 245 245 245 239 232 224 178 159 144 146 147 147 147 147 144 141 142 142 140 149 146 144 146 143 142 135
271 274 246 241 252 249 245 254 263 267 262 266 265 265 256 251 250 250 248 247 246 240 235 231 164 169 155 150 151 148 142 147 146 144 143 147 149 149 151 155 153 156 151 149
268 270 255 248 259 257 250 251 263 267 264 263 266 272 265 261 255 254 250 248 248 241 239 233 170 170 167 154 154 149 144 143 145 146 147 147 154 154 152 161 155 162 169 166
295 277 260 249 267 260 255 259 264 265 262 262 263 268 273 270 263 260 254 250 248 243 242 238 235 173 167 164 159 155 151 150 148 148 150 152 152 154 160 160 157 229 219 168